GW4109 Weather Reports


time (UTC)temp
F
wind
direction
speed
knots
gust
knots
rain 1hr
in
rain 24hr
in
rain mn
in
humidity
%
barometer
mb
20260506203544 85 104 3.5 7.0 0.00 0.00 0.00 21 1018.3
20260506203040 86 69 2.6 6.1 0.00 0.00 0.00 21 1018.5
20260506202538 84 163 4.3 7.0 0.00 0.00 0.00 21 1018.6
20260506202034 84 252 4.3 4.3 0.00 0.00 0.00 21 1018.5
20260506201532 84 20 1.7 3.5 0.00 0.00 0.00 22 1018.6
20260506201028 83 95 7.8 10.4 0.00 0.00 0.00 22 1018.8
20260506200524 84 73 4.3 5.2 0.00 0.00 0.00 22 1018.8
20260506200021 84 76 1.7 4.3 0.00 0.00 0.00 22 1018.8
20260506195518 84 126 3.5 7.8 0.00 0.00 0.00 22 1019.0
20260506195014 83 148 0.9 3.5 0.00 0.00 0.00 23 1019.1
20260506194512 83 113 3.5 7.0 0.00 0.00 0.00 22 1019.0
20260506194008 84 91 4.3 5.2 0.00 0.00 0.00 22 1019.2
20260506193505 82 97 2.6 10.4 0.00 0.00 0.00 23 1019.1
20260506192956 83 213 0.0 3.5 0.00 0.00 0.00 23 1019.2
20260506192454 84 128 5.2 5.2 0.00 0.00 0.00 22 1019.3
20260506191949 84 202 2.6 4.3 0.00 0.00 0.00 23 1019.2
20260506191447 82 163 0.9 5.2 0.00 0.00 0.00 23 1019.3
20260506190943 82 267 1.7 2.6 0.00 0.00 0.00 24 1019.4
20260506190440 81 313 0.9 3.5 0.00 0.00 0.00 25 1019.4
20260506185936 82 104 3.5 4.3 0.00 0.00 0.00 24 1019.5
20260506185434 82 173 3.5 4.3 0.00 0.00 0.00 25 1019.5
20260506184931 81 85 4.3 4.3 0.00 0.00 0.00 26 1019.5
20260506184427 82 302 0.0 2.6 0.00 0.00 0.00 25 1019.6
20260506183925 82 313 2.6 4.3 0.00 0.00 0.00 26 1019.7
20260506183420 80 112 2.6 7.8 0.00 0.00 0.00 26 1019.7
20260506182912 80 63 2.6 2.6 0.00 0.00 0.00 27 1019.8
20260506182409 79 141 1.7 3.5 0.00 0.00 0.00 28 1019.9
20260506181907 79 108 2.6 7.0 0.00 0.00 0.00 28 1019.7
20260506181404 81 96 0.9 4.3 0.00 0.00 0.00 27 1019.9
20260506180901 80 134 1.7 3.5 0.00 0.00 0.00 28 1019.8
20260506180357 77 102 3.5 7.8 0.00 0.00 0.00 29 1019.9
20260506175854 79 81 1.7 3.5 0.00 0.00 0.00 28 1019.8
20260506175350 80 82 1.7 3.5 0.00 0.00 0.00 28 1019.9
20260506174848 78 166 0.9 4.3 0.00 0.00 0.00 29 1020.0
20260506174345 77 35 0.9 4.3 0.00 0.00 0.00 30 1019.9
20260506173843 77 79 3.5 7.0 0.00 0.00 0.00 30 1019.9
20260506173339 78 58 0.0 2.6 0.00 0.00 0.00 29 1019.9
20260506172836 77 78 1.7 7.8 0.00 0.00 0.00 30 1020.2
20260506172333 76 107 2.6 5.2 0.00 0.00 0.00 30 1019.9
20260506171830 76 124 1.7 2.6 0.00 0.00 0.00 30 1020.0
20260506171327 76 112 2.6 7.0 0.00 0.00 0.00 30 1020.1
20260506170825 75 62 0.9 4.3 0.00 0.00 0.00 31 1020.0
20260506170320 76 108 2.6 4.3 0.00 0.00 0.00 30 1020.0
20260506165819 75 350 0.9 3.5 0.00 0.00 0.00 31 1019.8
20260506165316 75 95 3.5 3.5 0.00 0.00 0.00 31 1020.1
20260506164813 77 69 2.6 3.5 0.00 0.00 0.00 30 1020.0
20260506164310 76 162 1.7 3.5 0.00 0.00 0.00 31 1019.9
20260506163807 74 249 2.6 2.6 0.00 0.00 0.00 32 1019.9
20260506163301 74 145 0.9 3.5 0.00 0.00 0.00 33 1019.9
20260506162757 73 20 2.6 3.5 0.00 0.00 0.00 34 1019.8
20260506162256 73 258 0.0 2.6 0.00 0.00 0.00 34 1019.8
20260506161752 73 61 0.0 1.7 0.00 0.00 0.00 35 1019.8
20260506161250 73 89 0.0 2.6 0.00 0.00 0.00 35 1019.8
20260506160747 71 151 2.6 2.6 0.00 0.00 0.00 36 1019.7
20260506160244 72 117 3.5 3.5 0.00 0.00 0.00 35 1019.8
20260506155743 72 89 0.0 1.7 0.00 0.00 0.00 35 1019.8
20260506155239 73 109 1.7 2.6 0.00 0.00 0.00 35 1019.9
20260506153347 69 191 0.9 2.6 0.00 0.00 0.00 39 1019.7
20260506152843 68 322 0.0 2.6 0.00 0.00 0.00 40 1019.7
20260506152340 70 102 0.0 2.6 0.00 0.00 0.00 38 1019.6
20260506151839 71 269 0.0 1.7 0.00 0.00 0.00 38 1019.7
20260506151336 71 58 1.7 1.7 0.00 0.00 0.00 37 1019.7
20260506150833 69 25 0.0 0.9 0.00 0.00 0.00 39 1019.6
20260506150330 68 89 0.0 0.9 0.00 0.00 0.00 40 1019.8
20260506145826 68 86 0.9 2.6 0.00 0.00 0.00 40 1019.9
20260506145322 68 95 0.9 2.6 0.00 0.00 0.00 41 1019.8
20260506144821 67 81 1.7 2.6 0.00 0.00 0.00 41 1019.7
20260506144317 65 91 0.0 1.7 0.00 0.00 0.00 45 1019.8
20260506143816 66 22 0.0 1.7 0.00 0.00 0.00 43 1019.7
20260506143312 65 62 0.9 1.7 0.00 0.00 0.00 45 1019.7
20260506142810 64 27 1.7 1.7 0.00 0.00 0.00 46 1019.7
20260506142307 63 13 0.9 1.7 0.00 0.00 0.00 48 1019.6
20260506141806 64 21 0.9 1.7 0.00 0.00 0.00 46 1019.5
20260506141304 64 39 0.0 1.7 0.00 0.00 0.00 46 1019.7
20260506140801 64 60 0.9 1.7 0.00 0.00 0.00 46 1019.4
20260506140257 63 96 1.7 1.7 0.00 0.00 0.00 48 1019.4
20260506135755 59 34 0.0 1.7 0.00 0.00 0.00 52 1019.2
20260506135251 59 28 1.7 3.5 0.00 0.00 0.00 53 1019.3
20260506134748 58 20 0.9 1.7 0.00 0.00 0.00 54 1019.3
20260506134244 56 114 0.0 1.7 0.00 0.00 0.00 56 1019.3
20260506133742 56 151 0.9 1.7 0.00 0.00 0.00 57 1019.3
20260506133238 54 239 1.7 1.7 0.00 0.00 0.00 58 1019.1
20260506132735 53 283 0.0 1.7 0.00 0.00 0.00 60 1019.1
20260506132233 52 242 0.9 1.7 0.00 0.00 0.00 62 1019.1
20260506131731 52 181 0.9 1.7 0.00 0.00 0.00 62 1018.9
20260506131226 51 272 0.9 1.7 0.00 0.00 0.00 63 1018.9
20260506130723 51 165 0.0 1.7 0.00 0.00 0.00 62 1018.8
20260506130220 52 194 1.7 1.7 0.00 0.00 0.00 63 1018.8
20260506125718 51 151 0.0 1.7 0.00 0.00 0.00 62 1018.7
20260506125216 52 148 0.0 1.7 0.00 0.00 0.00 62 1018.8
20260506124714 51 61 0.9 1.7 0.00 0.00 0.00 63 1018.6
20260506124211 52 91 1.7 1.7 0.00 0.00 0.00 62 1018.3
20260506123708 53 256 0.0 1.7 0.00 0.00 0.00 61 1018.5
20260506123207 53 247 0.9 1.7 0.00 0.00 0.00 61 1018.5
20260506122703 53 262 0.9 1.7 0.00 0.00 0.00 60 1018.3
20260506122201 54 192 0.9 2.6 0.00 0.00 0.00 59 1018.6
20260506121659 54 215 0.9 1.7 0.00 0.00 0.00 59 1018.3
20260506121155 54 239 1.7 3.5 0.00 0.00 0.00 59 1018.4
20260506120653 52 178 0.0 1.7 0.00 0.00 0.00 62 1018.3
20260506120150 51 195 0.9 1.7 0.00 0.00 0.00 62 1018.3
20260506115648 52 184 1.7 1.7 0.00 0.00 0.00 62 1018.1
20260506115146 51 162 0.9 1.7 0.00 0.00 0.00 64 1018.3
20260506114643 52 89 0.0 1.7 0.00 0.00 0.00 63 1018.0
20260506114141 53 60 0.0 0.9 0.00 0.00 0.00 62 1018.1
20260506113639 52 22 0.9 1.7 0.00 0.00 0.00 63 1018.1
20260506113136 53 116 0.9 1.7 0.00 0.00 0.00 61 1018.2
20260506112632 54 320 0.0 1.7 0.00 0.00 0.00 60 1018.1
20260506112130 53 191 0.0 1.7 0.00 0.00 0.00 62 1018.0
20260506111627 53 240 0.0 1.7 0.00 0.00 0.00 62 1018.2
20260506111125 53 198 1.7 2.6 0.00 0.00 0.00 62 1018.1
20260506110622 53 211 1.7 1.7 0.00 0.00 0.00 62 1018.2
20260506110120 53 260 0.9 1.7 0.00 0.00 0.00 62 1018.0
20260506105616 52 231 1.7 1.7 0.00 0.00 0.00 62 1017.9
20260506105113 52 255 0.9 1.7 0.00 0.00 0.00 62 1018.2
20260506104611 52 208 0.9 1.7 0.00 0.00 0.00 62 1018.1
20260506104108 54 236 0.9 1.7 0.00 0.00 0.00 61 1018.1
20260506103606 53 172 0.0 1.7 0.00 0.00 0.00 62 1018.0
20260506103102 53 265 0.9 1.7 0.00 0.00 0.00 62 1018.0
20260506102601 52 228 0.0 2.6 0.00 0.00 0.00 62 1017.9
20260506102058 52 250 0.9 1.7 0.00 0.00 0.00 61 1017.9
20260506101554 53 171 0.0 1.7 0.00 0.00 0.00 60 1018.0
20260506101051 53 338 0.0 2.6 0.00 0.00 0.00 60 1018.0
20260506100550 53 86 0.9 1.7 0.00 0.00 0.00 59 1017.8
20260506100047 54 174 0.0 1.7 0.00 0.00 0.00 58 1017.9
20260506095546 53 240 1.7 2.6 0.00 0.00 0.00 59 1018.0
20260506095042 53 296 0.0 2.6 0.00 0.00 0.00 60 1017.9
20260506094540 53 172 0.9 1.7 0.00 0.00 0.00 61 1018.0
20260506094038 53 277 1.7 2.6 0.00 0.00 0.00 61 1017.9
20260506093536 54 189 0.9 1.7 0.00 0.00 0.00 61 1018.0
20260506093033 54 176 0.9 0.9 0.00 0.00 0.00 60 1018.1
20260506092530 54 324 0.0 1.7 0.00 0.00 0.00 60 1018.0
20260506092027 54 320 0.0 1.7 0.00 0.00 0.00 59 1018.0
20260506091526 55 47 0.9 1.7 0.00 0.00 0.00 58 1018.0
20260506091022 55 72 1.7 1.7 0.00 0.00 0.00 57 1017.9
20260506090520 56 201 0.0 3.5 0.00 0.00 0.00 56 1017.8
20260506090016 55 112 0.9 1.7 0.00 0.00 0.00 56 1017.9
20260506085513 56 231 1.7 3.5 0.00 0.00 0.00 56 1017.9
20260506085010 56 76 0.0 1.7 0.00 0.00 0.00 58 1017.9
20260506084507 56 89 0.0 1.7 0.00 0.00 0.00 56 1018.2
20260506084003 56 206 1.7 1.7 0.00 0.00 0.00 57 1018.2
20260506083500 56 254 1.7 2.6 0.00 0.00 0.00 56 1018.1
20260506082957 57 216 0.0 3.5 0.00 0.00 0.00 55 1018.1
20260506082454 56 118 0.9 2.6 0.00 0.00 0.00 57 1018.3
20260506081950 56 1 0.0 1.7 0.00 0.00 0.00 57 1018.3
20260506081448 57 246 1.7 2.6 0.00 0.00 0.00 56 1018.3
20260506080945 57 353 1.7 5.2 0.00 0.00 0.00 56 1018.3
20260506080442 57 106 1.7 2.6 0.00 0.00 0.00 55 1018.3
20260506073426 59 178 1.7 1.7 0.00 0.00 0.00 53 1018.5
20260506072923 59 269 0.0 1.7 0.00 0.00 0.00 52 1018.4
20260506072420 59 116 0.0 1.7 0.00 0.00 0.00 52 1018.5
20260506071917 60 235 0.9 2.6 0.00 0.00 0.00 51 1018.5
20260506071416 60 294 1.7 1.7 0.00 0.00 0.00 51 1018.7
20260506070912 60 202 1.7 2.6 0.00 0.00 0.00 52 1018.4
20260506070409 59 162 0.0 1.7 0.00 0.00 0.00 52 1018.7
20260506062347 63 330 2.6 9.6 0.00 0.00 0.00 48 1018.0
20260506061843 63 269 3.5 5.2 0.00 0.00 0.00 48 1017.9
20260506061339 63 344 1.7 7.0 0.00 0.00 0.00 48 1018.1
20260506060838 63 257 4.3 5.2 0.00 0.00 0.00 47 1018.0
20260506060335 63 249 4.3 6.1 0.00 0.00 0.00 47 1018.0
20260506051307 62 286 2.6 8.7 0.00 0.00 0.00 47 1018.1
20260506050805 64 247 6.1 11.3 0.00 0.00 0.00 45 1017.7
20260506050302 63 240 6.1 6.1 0.00 0.00 0.00 46 1017.9
20260506044752 63 112 0.0 2.6 0.00 0.00 0.00 45 1017.6
20260506044250 64 133 0.9 2.6 0.00 0.00 0.00 45 1017.7
20260506043747 63 242 1.7 5.2 0.00 0.00 0.00 45 1017.4
20260506043244 64 128 0.0 3.5 0.00 0.00 0.00 45 1017.2
20260506042743 64 260 1.7 5.2 0.00 0.00 0.00 44 1017.4
20260506042242 65 252 2.6 6.1 0.00 0.00 0.00 43 1017.3
20260506041740 64 288 1.7 7.8 0.00 0.00 0.00 44 1017.2
20260506041236 64 253 2.6 3.5 0.00 0.00 0.00 44 1017.2
20260506040734 64 266 6.1 7.8 0.00 0.00 0.00 44 1017.0
20260506040231 65 268 3.5 6.1 0.00 0.00 0.00 43 1016.9
20260506035727 64 235 6.1 9.6 0.00 0.00 0.00 44 1016.9
20260506035224 65 248 1.7 7.0 0.00 0.00 0.00 43 1016.7
20260506034721 65 245 5.2 7.0 0.00 0.00 0.00 43 1016.7
20260506034218 65 231 2.6 7.0 0.00 0.00 0.00 43 1016.7
20260506033716 65 273 4.3 8.7 0.00 0.00 0.00 43 1016.3
20260506033212 65 256 4.3 9.6 0.00 0.00 0.00 43 1016.3
20260506032709 65 235 3.5 7.0 0.00 0.00 0.00 43 1016.1
20260506032206 65 232 4.3 12.2 0.00 0.00 0.00 43 1016.5
20260506031703 65 279 5.2 13.9 0.00 0.00 0.00 43 1016.2
20260506031200 64 244 2.6 7.8 0.00 0.00 0.00 44 1016.2
20260506030659 65 243 9.6 13.9 0.00 0.00 0.00 43 1016.0
20260506030155 64 248 9.6 13.9 0.00 0.00 0.00 44 1015.8
20260506025652 65 236 3.5 12.2 0.00 0.00 0.00 44 1015.8
20260506025148 65 275 3.5 16.5 0.00 0.00 0.00 43 1015.6
20260506024645 65 229 7.8 10.4 0.00 0.00 0.00 44 1015.9
20260506024141 65 235 14.8 16.5 0.00 0.00 0.00 43 1015.5
20260506023638 65 275 4.3 13.0 0.00 0.00 0.00 43 1015.7
20260506023135 65 292 6.1 13.9 0.00 0.00 0.00 42 1015.4
20260506022632 65 246 9.6 15.6 0.00 0.00 0.00 42 1015.4
20260506022130 66 261 7.8 11.3 0.00 0.00 0.00 42 1015.4
20260506021628 66 257 7.0 14.8 0.00 0.00 0.00 40 1015.2
20260506021125 66 317 4.3 12.2 0.00 0.00 0.00 41 1015.1
20260506020622 66 313 5.2 15.6 0.00 0.00 0.00 40 1015.1
20260506020119 66 319 9.6 16.5 0.00 0.00 0.00 40 1014.9
20260506015617 67 315 7.8 18.2 0.00 0.00 0.00 39 1014.9
20260506015113 67 307 3.5 14.8 0.00 0.00 0.00 39 1014.8
20260506014611 67 295 7.8 20.9 0.00 0.00 0.00 38 1014.6
20260506014106 67 295 7.0 16.5 0.00 0.00 0.00 38 1014.7
20260506013605 68 305 7.8 24.3 0.00 0.00 0.00 37 1014.5
20260506013101 67 263 7.8 11.3 0.00 0.00 0.00 37 1014.7
20260506012557 68 297 8.7 13.9 0.00 0.00 0.00 36 1014.6
20260506012054 68 315 9.6 13.9 0.00 0.00 0.00 36 1014.7
20260506011552 70 245 11.3 16.5 0.00 0.00 0.00 34 1014.5
20260506011048 70 286 5.2 10.4 0.00 0.00 0.00 33 1014.7
20260506010547 70 335 7.0 16.5 0.00 0.00 0.00 33 1014.5
20260506010044 70 347 3.5 20.0 0.00 0.00 0.00 33 1014.7
20260506005541 71 246 7.0 7.8 0.00 0.00 0.00 32 1014.7
20260506005037 72 274 4.3 7.8 0.00 0.00 0.00 32 1014.6
20260506004534 72 329 4.3 5.2 0.00 0.00 0.00 32 1014.6
20260506004031 72 314 0.0 2.6 0.00 0.00 0.00 32 1014.5
20260506003527 70 233 4.3 11.3 0.00 0.00 0.00 34 1014.7
20260506003023 70 225 5.2 17.4 0.00 0.00 0.00 34 1014.8
20260506002520 70 234 22.6 26.9 0.00 0.00 0.00 34 1014.8
20260506002015 70 231 16.5 20.0 0.00 0.00 0.00 33 1014.8
20260506001512 69 235 5.2 23.5 0.00 0.00 0.00 34 1015.1
20260506001009 70 242 6.1 16.5 0.00 0.00 0.00 35 1014.9
20260506000507 71 207 6.1 20.9 0.00 0.00 0.00 34 1014.9
20260506000003 71 213 12.2 22.6 0.00 0.00 0.00 34 1015.1
20260505235502 71 227 6.1 20.0 0.00 0.00 0.00 34 1014.9
20260505234958 71 225 14.8 16.5 0.00 0.00 0.00 34 1015.2
20260505234455 71 215 8.7 15.6 0.00 0.00 0.00 34 1015.1
20260505233952 71 254 7.0 20.0 0.00 0.00 0.00 33 1015.4
20260505233450 71 241 9.6 11.3 0.00 0.00 0.00 32 1015.4
20260505232947 73 222 12.2 15.6 0.00 0.00 0.00 32 1015.3
20260505232445 72 232 12.2 15.6 0.00 0.00 0.00 32 1015.3
20260505231942 71 234 13.9 14.8 0.00 0.00 0.00 33 1015.5
20260505231439 72 239 11.3 13.9 0.00 0.00 0.00 31 1015.5
20260505230937 73 240 1.7 19.1 0.00 0.00 0.00 31 1015.3
20260505230435 72 232 7.8 17.4 0.00 0.00 0.00 32 1015.5
20260505225931 72 242 10.4 17.4 0.00 0.00 0.00 31 1015.5
20260505225428 73 242 9.6 17.4 0.00 0.00 0.00 30 1015.6
20260505224923 72 218 7.0 17.4 0.00 0.00 0.00 30 1015.6
20260505224421 71 253 12.2 19.1 0.00 0.00 0.00 31 1015.8
20260505223918 73 235 8.7 8.7 0.00 0.00 0.00 30 1016.0
20260505223415 73 227 12.2 13.9 0.00 0.00 0.00 29 1015.9
20260505222911 74 232 16.5 18.2 0.00 0.00 0.00 29 1015.8
20260505222407 71 249 7.0 13.0 0.00 0.00 0.00 32 1015.9
20260505221904 73 246 3.5 18.2 0.00 0.00 0.00 31 1016.1
20260505221401 73 183 0.9 4.3 0.00 0.00 0.00 31 1016.1
20260505220858 74 327 6.1 13.9 0.00 0.00 0.00 30 1016.1
20260505220355 71 345 2.6 11.3 0.00 0.00 0.00 32 1016.5
20260505215852 72 232 7.8 13.0 0.00 0.00 0.00 31 1016.3
20260505215351 71 309 7.0 14.8 0.00 0.00 0.00 31 1016.2
20260505214848 74 249 2.6 12.2 0.00 0.00 0.00 30 1016.6
20260505214346 73 172 0.9 7.0 0.00 0.00 0.00 31 1016.5
20260505213843 71 247 5.2 12.2 0.00 0.00 0.00 33 1016.6
20260505213341 71 253 5.2 20.0 0.00 0.00 0.00 31 1016.6
20260505212836 71 255 3.5 9.6 0.00 0.00 0.00 31 1016.8
20260505212333 71 252 4.3 9.6 0.00 0.00 0.00 32 1016.8
20260505211829 71 329 10.4 14.8 0.00 0.00 0.00 32 1016.8
20260505211327 72 264 4.3 13.0 0.00 0.00 0.00 32 1016.7
20260505210824 73 354 5.2 10.4 0.00 0.00 0.00 32 1016.7
20260505210320 70 330 5.2 10.4 0.00 0.00 0.00 35 1016.8
20260505205817 71 257 7.0 12.2 0.00 0.00 0.00 33 1016.9
20260505205316 71 333 3.5 5.2 0.00 0.00 0.00 33 1016.8
20260505204812 70 289 2.6 9.6 0.00 0.00 0.00 34 1017.0
20260505204310 72 134 0.0 13.0 0.00 0.00 0.00 31 1016.8